Startseite
Über Mich
AHP4
Galerie
Sehschlangen
Tourenbuch
Bookmarks
Elektronik
Bewertung
Geschichten
[Tagesmessung] [Jahreswerte] [Information]

Messwerte vom 17.03.2022

Die letzten Messwerte von 23:58:46 Uhr:
KategorieMesswert
Temperatur [°C]3
Luftdruck [mBar]1021
Sonneneinstrahlung0
Wind [km/h]2 aus Nordwest
Niederschlag [l/m²]0
rel.Luftfeucht.96.6%
CO2 [ppm]454

Diagramme
Messwerte vom 17.03.2022
Tagesaggregation
KategorieMinimumMaximumSchnittSumme
Temperatur [°C]1126.1083
Luftdruck [mBar]100910211012.9563
Sonneneinstrahlung22484.0458
Wind [km/h]12
rF [%]66.796.690.8
Niederschlag [l/m²]1.2875
CO2 [ppm]401460421.9
Einordnung alsVegetationstag

Messungen an benachbarten Tagen: Zur Jahresaggregation 2022
Tabelle aller Messwerte
UhrzeitTemperatur [°C]Luftdruck [mBar]SonneWind [km/h]RichtungRegen [l/m²]rF [%]CO2 [ppm]
00:01:47 5 1010 0 2 N 0 88.7 403
00:04:45 5 1010 0 1 N 0 89.1 404
00:07:45 5 1010 0 2 NO 0 89.1 404
00:10:50 6 1010 0 3 S 0 89.2 408
00:13:48 6 1010 0 2 SW 0 89 408
00:16:46 6 1010 0 2 N 0 89.2 407
00:19:48 6 1010 0 4 NO 0 89.3 407
00:22:47 6 1010 0 1 NO 0 89.3 401
00:25:47 6 1010 0 1 N 0 89.2 405
00:28:48 6 1010 0 2 SW 0 89.2 405
00:31:46 6 1010 0 3 O 0 89.3 407
00:34:47 6 1010 0 3 O 0 89.9 407
00:37:48 6 1010 0 2 NO 0 89.7 405
00:40:47 6 1010 0 1 SO 0 89.5 407
00:43:47 6 1010 0 0 O 0 89.5 407
00:46:46 6 1010 0 3 NO 0 89.6 407
00:49:46 6 1010 0 1 SO 0 89.8 406
00:52:48 6 1009 0 4 SO 0 89.9 405
00:55:47 6 1010 0 2 S 0 89.5 405
00:58:48 6 1010 0 5 NO 0 89.7 404
01:01:47 6 1010 0 2 O 0 89.6 405
01:04:47 6 1010 0 2 NO 0 89.7 404
01:07:44 6 1010 0 3 O 0 90.1 406
01:10:45 6 1010 0 1 O 0 90.3 407
01:13:45 6 1010 0 5 O 0 90.5 404
01:16:44 6 1010 0 3 NO 0 90.5 407
01:19:47 6 1010 0 1 S 0 90.5 407
01:22:46 6 1010 0 7 N 0 90.3 407
01:25:49 6 1010 0 4 NW 0 90.3 407
01:28:48 6 1010 0 2 NW 0 90.4 407
01:31:49 6 1010 0 4 SO 0 90.3 404
01:34:46 6 1010 0 3 0 90.1 407
01:37:47 6 1010 0 2 S 0 90.2 405
01:40:46 6 1010 0 1 N 0 90.4 407
01:43:48 6 1010 0 2 S 0 90.8 404
01:46:46 6 1010 0 3 NO 0 91 405
01:49:46 6 1010 0 1 NO 0 91 407
01:52:49 6 1010 0 3 SW 0 90.9 404
01:55:47 6 1010 0 0 NO 0 90.9 404
01:58:47 6 1010 0 2 O 0 91.3 407
02:01:47 6 1010 0 1 N 0 91.5 405
02:04:48 5 1010 0 0 SO 0 91.4 404
02:07:47 5 1009 0 1 NO 0 91.5 405
02:10:47 5 1010 0 0 O 0 91.8 405
02:13:46 5 1010 0 2 S 0 91.8 407
02:16:46 5 1009 0 2 O 0 91.8 407
02:19:46 5 1009 0 0 NO 0 91.8 407
02:22:46 5 1010 0 0 O 0 92 404
02:25:45 5 1010 0 3 0 92.1 407
02:28:48 5 1010 0 0 SO 0 92.3 404
02:31:47 5 1010 0 2 NO 0 92.3 407
02:34:47 5 1009 0 1 NO 0 92.2 404
02:37:46 5 1010 0 1 O 0 92.3 407
02:40:45 5 1010 0 2 O 0 92.4 407
02:43:48 5 1010 0 3 SW 0 92.2 407
02:46:48 5 1010 0 1 O 0 92.1 405
02:49:48 5 1010 0 0 S 0 92.4 407
02:52:47 5 1009 0 1 S 0 92.3 405
02:55:47 5 1010 0 4 S 0 92.6 403
02:58:48 5 1010 0 1 NW 0 92.7 407
03:01:47 5 1010 0 1 SO 0 92.6 405
03:04:46 5 1010 0 1 W 0 92.9 404
03:07:47 5 1010 0 1 SO 0 92.9 407
03:10:49 5 1009 0 0 SO 0 92.7 405
03:13:47 5 1009 0 2 NO 0 92.6 407
03:16:47 5 1010 0 2 NO 0 92.7 405
03:19:48 5 1010 0 0 SO 0 93.1 407
03:22:47 5 1009 0 1 S 0 93.3 408
03:25:46 5 1009 0 1 S 0 93.3 405
03:28:47 5 1009 0 1 N 0 93 404
03:31:46 5 1010 0 2 NO 0 92.9 405
03:34:46 5 1009 0 1 NO 0 92.8 404
03:37:47 5 1010 0 2 O 0 93.4 404
03:40:46 5 1010 0 1 O 0 93.5 407
03:43:47 5 1009 0 2 SO 0 93.7 404
03:46:47 5 1010 0 0 NO 0 94.2 405
03:49:46 5 1009 0 0 SO 0 94.1 407
03:52:47 5 1010 0 0 NO 0 94.4 407
03:55:47 5 1010 0 0 SW 0 94.2 407
03:58:47 5 1009 0 2 S 0 94.3 407
04:01:45 5 1010 0 0 O 0 94.2 401
04:04:45 5 1010 0 1 SO 0 94 404
04:07:48 5 1009 0 0 NW 0 94.1 404
04:10:48 5 1010 0 1 O 0 94.1 407
04:13:47 5 1009 0 2 NO 0 94.4 407
04:16:46 5 1010 0 2 O 0 94.5 407
04:19:46 5 1009 0 0 O 0 94.4 407
04:22:46 5 1010 0 1 S 0 94.4 406
04:25:46 5 1010 0 1 SO 0 94.6 406
04:28:45 5 1009 0 2 W 0 94.8 404
04:31:48 5 1009 0 0 NO 0 94.6 405
04:34:46 5 1009 0 4 SO 0 94.6 404
04:37:45 5 1009 0 0 O 0 94.4 404
04:40:46 5 1009 0 1 NW 0 94.5 404
04:43:44 5 1010 0 3 O 0 94 407
04:46:45 5 1010 0 3 N 0 94 407
04:49:45 5 1009 0 2 O 0 94 404
04:52:46 5 1009 0 1 O 0 93.8 404
04:55:46 5 1009 0 1 O 0 93.8 407
04:58:46 5 1009 0 3 O 0 93.7 407
05:01:48 5 1009 0 1 SO 0 93.8 404
05:04:50 5 1009 0 1 NW 0 93.7 404
05:07:48 5 1009 0 1 NO 0 93.6 405
05:10:49 5 1009 0 5 NW 0 93.6 407
05:13:48 5 1009 0 1 W 0 93.7 407
05:16:46 5 1010 0 4 S 0 93.8 404
05:19:48 5 1009 0 2 NW 0 93.9 407
05:22:47 5 1009 0 2 NW 0 93.8 405
05:25:47 5 1009 0 2 SO 0 93.8 405
05:28:47 5 1009 0 4 O 0 93.7 404
05:31:47 5 1009 0 3 NO 0 93.3 407
05:34:47 5 1009 0 3 O 0 93.1 407
05:37:45 5 1009 0 2 O 0 93.1 404
05:40:45 5 1009 0 1 S 0 93.1 401
05:43:47 5 1009 0 2 SO 0 93 407
05:46:47 5 1009 0 2 S 0 93 404
05:49:48 5 1009 0 0 N 0 92.9 404
05:52:49 5 1009 0 4 SO 0 92.9 405
05:55:48 5 1009 0 1 NO 0 92.8 403
05:58:47 5 1009 0 2 NO 0 92.6 407
06:01:47 5 1009 0 1 O 0 92.4 404
06:04:46 5 1009 0 1 O 0 92.3 405
06:07:48 6 1009 0 2 NW 0 92.3 404
06:10:45 6 1009 3 1 O 0 92.1 404
06:13:51 6 1009 5 3 NW 0 92 404
06:16:46 5 1009 8 4 O 0 92 405
06:19:46 5 1009 12 1 N 0 92 404
06:22:46 5 1009 16 1 S 0 92.1 407
06:25:46 6 1009 20 2 NO 0 92.2 404
06:28:50 6 1009 23 3 NO 0 92.2 407
06:31:49 6 1009 27 2 S 0 92.1 405
06:34:48 6 1009 31 3 SO 0 91.7 407
06:37:49 6 1009 37 1 NW 0 91.5 404
06:40:48 6 1009 43 2 SO 0 91.5 404
06:43:48 6 1009 50 5 S 0 91.5 405
06:46:45 6 1009 58 2 N 0 91.5 407
06:49:46 6 1009 67 1 NW 0 91.4 404
06:52:47 6 1009 77 3 O 0 91.2 407
06:55:46 6 1009 86 4 S 0 91 404
06:58:49 6 1009 95 5 S 0 90.8 404
07:01:48 6 1010 104 4 O 0 90.7 404
07:04:46 6 1009 114 0 SO 0 90.6 407
07:07:50 6 1010 123 3 W 0 90.4 407
07:10:50 6 1010 129 2 O 0 90.3 407
07:13:48 6 1009 133 5 SW 0 90.2 405
07:16:47 6 1009 135 1 SW 0 90.1 404
07:19:48 6 1010 137 7 SO 0 90 407
07:22:48 6 1009 137 2 NO 0 89.8 403
07:25:48 6 1009 138 6 SW 0 89.7 404
07:28:48 6 1009 141 4 SO 0 89.5 404
07:31:48 6 1009 146 3 SO 0 89.3 404
07:34:50 6 1009 149 2 W 0 89.2 405
07:37:51 6 1009 150 3 NO 0 89.1 404
07:40:48 6 1009 152 2 S 0 88.8 408
07:43:48 7 1009 154 5 SW 0 88.7 404
07:46:48 7 1010 158 4 SO 0 88.4 404
07:49:49 7 1009 161 3 SO 0 88.2 407
07:52:47 7 1009 162 5 S 0 87.9 407
07:55:49 7 1010 164 3 SW 0 87.7 405
07:58:48 7 1010 166 7 SW 0 87.3 404
08:01:48 7 1009 168 4 SO 0 87.2 407
08:04:49 7 1009 169 6 SO 0 87 404
08:07:47 7 1010 170 3 S 0 86.7 407
08:10:48 7 1010 172 1 W 0 86.5 407
08:13:48 7 1009 175 4 SW 0 86.2 407
08:16:48 7 1010 179 3 SO 0 86 404
08:19:50 7 1010 182 5 SW 0 85.8 407
08:22:51 7 1009 185 3 SO 0 85.4 402
08:25:50 7 1009 187 4 SO 0 85.3 407
08:28:48 7 1010 188 1 O 0 85.2 407
08:31:48 7 1010 189 5 SW 0 85.1 407
08:34:51 8 1010 190 2 NW 0 85.2 404
08:37:48 8 1010 191 8 SO 0 85.1 405
08:40:48 8 1009 192 3 S 0 84.7 407
08:43:48 8 1010 192 2 0 84.4 407
08:46:48 8 1009 192 2 0 84.2 407
08:49:49 8 1010 193 6 SO 0 84 406
08:52:48 8 1009 198 5 NO 0 83.9 404
08:55:50 8 1009 202 3 NO 0 83.8 407
08:58:49 8 1009 203 4 NO 0 83.7 406
09:01:49 8 1010 203 2 SO 0 83.6 404
09:04:47 8 1009 204 2 NO 0 83.4 407
09:07:48 8 1009 206 1 NW 0 83 404
09:10:48 8 1010 208 2 N 0 82.9 404
09:13:47 8 1010 209 9 SO 0 82.7 404
09:16:46 9 1010 208 6 O 0 82.1 407
09:19:47 9 1010 206 1 SO 0 81.9 404
09:22:50 9 1010 205 1 SO 0 81.5 404
09:25:51 9 1010 205 2 O 0 81.4 404
09:28:49 9 1010 205 8 O 0 80.3 407
09:31:48 9 1009 206 1 O 0 80.1 404
09:34:49 9 1010 206 2 NW 0 79.6 407
09:37:50 9 1010 204 3 SO 0 79.4 404
09:40:47 9 1010 203 7 SO 0 79.7 404
09:43:46 10 1010 202 2 N 0 79.4 404
09:46:48 10 1010 200 1 SO 0 78.7 405
09:49:47 10 1010 199 3 S 0 78.7 404
09:52:47 10 1010 197 3 SO 0 78.2 401
09:55:47 10 1010 197 0 0 77.8 404
09:58:46 9 1010 198 6 SO 0 77.5 407
10:01:48 9 1010 200 5 0 77.4 404
10:04:50 9 1010 200 9 SO 0 77.8 407
10:07:50 10 1010 199 4 S 0 77.2 405
10:10:48 10 1010 199 3 SO 0 77.3 407
10:13:47 10 1010 200 4 SO 0 77.1 404
10:16:45 10 1010 200 5 S 0 76.8 404
10:19:47 10 1010 202 4 S 0 76.7 407
10:22:47 10 1010 208 3 S 0 76.4 407
10:25:47 10 1010 213 3 S 0 76 408
10:28:48 10 1010 217 7 SO 0 75.8 407
10:31:51 10 1010 217 12 SW 0 75.8 407
10:34:48 10 1010 217 5 SW 0 75.3 407
10:37:50 10 1010 219 11 SO 0 75 407
10:40:47 10 1010 222 5 S 0 74.6 404
10:43:50 11 1010 222 6 SO 0 74.4 404
10:46:47 11 1010 223 2 S 0 74 407
10:49:48 11 1010 224 6 O 0 73 404
10:52:48 11 1010 224 6 SO 0 72.4 404
10:55:46 11 1010 224 5 S 0 71.3 407
10:58:46 12 1010 224 9 S 0 70.5 404
11:01:49 12 1010 223 12 S 0 69.7 407
11:04:48 12 1010 222 9 SW 0 68.5 407
11:07:49 12 1010 219 6 SO 0 68.2 404
11:10:50 12 1010 220 2 SO 0 69 407
11:13:46 12 1010 217 5 S 0 68.7 404
11:16:45 12 1010 215 5 S 0 68.1 404
11:19:50 12 1010 213 5 SO 0 66.9 405
11:22:48 12 1010 212 3 S 0 66.7 407
11:25:49 12 1010 211 4 SO 0 66.9 407
11:28:48 12 1010 207 2 S 0 67.3 402
11:31:47 12 1010 204 1 SO 0 66.8 407
11:34:47 11 1011 202 4 SW 0 67 407
11:37:48 11 1010 196 4 SW 0 67 405
11:40:46 11 1010 191 2 S 0 67.5 404
11:43:48 11 1011 187 3 S 0 68.5 425
11:46:49 11 1010 189 5 SO 0 69.2 428
11:49:50 11 1010 187 0 SW 0 70.7 424
11:52:48 11 1010 189 0 S 0 71 422
11:55:49 11 1010 184 3 SW 0 70.8 420
11:58:46 11 1011 188 1 SO 0 70 418
12:01:49 11 1011 182 2 SW 0 69.7 425
12:04:48 11 1010 178 2 0 69.9 425
12:07:50 10 1011 168 0 SO 0 70.3 428
12:10:47 10 1011 163 1 S 0 70.8 427
12:13:47 10 1011 165 2 SO 0 71.4 425
12:16:48 10 1012 168 1 SW 0 72.3 427
12:19:49 10 1012 169 3 SW 0 72.9 429
12:22:47 10 1012 179 0 S 0 73.5 430
12:25:47 10 1011 174 6 SO 0 74.5 430
12:28:49 10 1012 165 4 SO 0 75.9 425
12:31:46 10 1012 150 1 S 0 76.5 425
12:34:50 9 1012 164 0 S 0 78.9 427
12:37:50 9 1012 169 1 W 0 80.5 430
12:40:48 9 1012 169 0 SO 0 80.9 427
12:43:49 9 1012 182 1 NW 0 81.8 427
12:46:48 9 1012 184 1 SO 0 82.3 430
12:49:48 9 1012 180 7 S 0 83.5 428
12:52:49 9 1012 191 7 S 0 84.2 422
12:55:50 9 1012 199 2 N 0 84.8 428
12:58:49 9 1012 200 2 W 0 85.6 427
13:01:49 9 1012 201 5 S 0 86.6 425
13:04:48 9 1012 203 8 SO 0 87.1 425
13:07:48 9 1013 196 2 SW 0 87.8 427
13:10:48 9 1012 202 2 S 0 88.4 422
13:13:48 9 1012 194 1 SW 0 88.8 422
13:16:48 9 1013 201 4 S 0 89.5 431
13:19:46 9 1013 193 1 S 0 90.7 442
13:22:48 9 1013 193 0 N 0 91.7 437
13:25:46 8 1013 188 0 W 0 92.5 433
13:28:47 8 1013 173 1 SW 0.2575 93.2 434
13:31:47 8 1012 166 0 S 0 93.9 433
13:34:45 8 1013 171 1 SO 0 94.2 439
13:37:46 8 1013 175 5 S 0 95.5 436
13:40:47 8 1012 174 5 S 0 96.1 437
13:43:49 8 1013 177 2 NW 0 96.4 431
13:46:48 8 1013 177 2 NW 0 96.4 428
13:49:48 8 1013 180 2 S 0 96.6 432
13:52:46 8 1013 178 4 W 0.2575 96.6 433
13:55:48 8 1013 170 8 NW 0 96.6 431
13:58:46 8 1013 168 7 SW 0 96.6 431
14:01:48 7 1013 189 2 SO 0 96.6 429
14:04:49 7 1013 194 5 W 0.2575 96.6 425
14:07:47 8 1013 194 4 W 0 96.6 422
14:10:48 8 1013 192 6 SW 0 96.6 422
14:13:48 8 1013 190 5 W 0 96.6 424
14:16:47 8 1013 190 4 SW 0 96.6 428
14:19:47 8 1013 189 2 N 0 96.6 431
14:22:49 8 1013 188 7 S 0 96.6 434
14:25:45 8 1013 187 2 S 0 96.6 436
14:28:50 8 1013 186 2 SW 0.2575 96.6 436
14:31:46 8 1013 185 1 S 0 96.6 431
14:34:48 8 1013 188 1 W 0 96.6 434
14:37:48 8 1013 193 2 SW 0 96.6 430
14:40:48 8 1013 190 1 W 0 96.6 428
14:43:50 8 1013 201 3 SW 0 96.6 431
14:46:46 8 1013 199 7 W 0 96.6 425
14:49:48 8 1013 194 2 NW 0 96.6 434
14:52:47 8 1013 187 3 S 0 96.6 425
14:55:47 8 1013 185 1 S 0 96.6 428
14:58:46 8 1013 178 1 S 0.2575 96.6 425
15:01:47 8 1013 177 1 NW 0 96.6 431
15:04:47 8 1013 177 1 NW 0 96.6 430
15:07:46 8 1013 166 1 W 0 96.6 427
15:10:48 7 1013 156 6 NW 0 96.6 427
15:13:49 7 1013 142 0 SW 0 96.6 427
15:16:45 7 1013 148 0 O 0 96.6 434
15:19:49 7 1013 153 1 SW 0 96.6 430
15:22:44 7 1013 158 1 S 0 96.6 431
15:25:47 7 1013 162 2 W 0 96.6 432
15:28:47 7 1013 161 3 W 0 96.6 435
15:31:48 7 1013 156 1 SW 0 96.6 432
15:34:50 7 1013 157 0 SW 0 96.6 434
15:37:50 7 1013 159 1 SW 0 96.6 438
15:40:48 7 1014 163 0 SW 0 96.6 435
15:43:47 7 1013 163 2 W 0 96.6 439
15:46:46 7 1014 164 0 S 0 96.6 431
15:49:48 7 1013 166 1 W 0 96.6 427
15:52:50 7 1014 169 4 NW 0 96.6 432
15:55:47 7 1014 171 0 S 0 96.6 431
15:58:46 7 1013 176 3 NW 0 96.6 431
16:01:47 7 1014 171 0 SO 0 96.6 434
16:04:48 7 1014 159 1 W 0 96.6 442
16:07:46 7 1014 166 1 S 0 96.6 442
16:10:48 7 1014 161 0 W 0 96.6 440
16:13:48 7 1014 162 4 NW 0 96.6 436
16:16:47 7 1015 150 5 W 0 96.6 436
16:19:48 7 1015 157 4 NO 0 96.6 440
16:22:45 7 1014 154 4 N 0 96.6 436
16:25:50 7 1014 153 6 NW 0 96.6 440
16:28:46 7 1014 161 6 N 0 96.6 439
16:31:46 7 1014 158 3 N 0 96.6 433
16:34:50 7 1015 157 2 SW 0 96.6 431
16:37:48 7 1014 158 9 W 0 96.6 424
16:40:48 7 1014 160 8 W 0 96.6 425
16:43:47 7 1014 162 7 W 0 96.6 425
16:46:48 7 1016 162 8 S 0 96.6 431
16:49:50 7 1015 159 2 NW 0 96.6 425
16:52:48 7 1015 154 8 NW 0 96.6 431
16:55:47 7 1016 157 6 W 0 96.6 427
16:58:47 7 1015 158 12 W 0 96.6 430
17:01:49 7 1015 156 5 NW 0 96.6 425
17:04:49 7 1015 154 8 W 0 96.6 428
17:07:47 7 1016 152 5 NW 0 96.6 442
17:10:51 7 1015 136 2 NW 0 96.6 436
17:13:47 7 1016 126 2 W 0 96.6 433
17:16:49 7 1016 122 6 W 0 96.6 436
17:19:48 7 1016 126 5 W 0 96.6 439
17:22:50 7 1016 127 3 W 0 96.6 434
17:25:47 7 1016 133 1 W 0 96.6 429
17:28:48 7 1017 127 2 W 0 96.6 428
17:31:49 7 1016 129 4 W 0 96.6 428
17:34:46 7 1017 130 5 NW 0 96.6 425
17:37:47 7 1016 131 3 W 0 96.6 427
17:40:46 7 1017 131 5 W 0 96.6 431
17:43:48 7 1017 120 3 NW 0 96.6 437
17:46:47 7 1016 114 2 W 0 96.6 439
17:49:48 7 1017 110 4 NW 0 96.6 434
17:52:46 7 1017 97 4 W 0 96.6 433
17:55:46 7 1017 89 3 W 0 96.6 431
17:58:50 7 1017 82 4 NW 0 96.6 427
18:01:48 7 1017 77 3 NW 0 96.6 427
18:04:48 7 1017 72 2 W 0 96.6 430
18:07:49 7 1017 56 2 NW 0 96.6 433
18:10:49 7 1017 57 2 SW 0 96.6 445
18:13:47 7 1017 55 4 W 0 96.6 440
18:16:48 7 1017 71 0 N 0 96.6 436
18:19:46 7 1017 66 4 W 0 96.6 436
18:22:45 6 1017 62 3 W 0 96.6 431
18:25:47 6 1017 62 0 NW 0 96.6 436
18:28:48 6 1017 69 5 W 0 96.6 431
18:31:46 6 1017 60 3 W 0 96.6 436
18:34:46 6 1017 46 4 W 0 96.6 443
18:37:49 6 1017 30 4 NW 0 96.6 442
18:40:46 6 1017 18 2 N 0 96.6 436
18:43:46 6 1017 11 2 W 0 96.6 436
18:46:47 6 1017 5 2 W 0 96.6 437
18:49:48 5 1017 3 1 W 0 96.6 433
18:52:45 5 1017 0 0 W 0 96.6 427
18:55:48 5 1017 0 0 W 0 96.6 431
18:58:46 5 1017 0 1 W 0 96.6 440
19:01:46 5 1017 0 0 W 0 96.6 440
19:04:47 5 1017 0 0 W 0 96.6 439
19:07:44 5 1017 0 0 W 0 96.6 436
19:10:45 4 1017 0 0 W 0 96.6 433
19:13:46 4 1017 0 0 W 0 96.6 431
19:16:46 4 1017 0 0 W 0 96.6 434
19:19:45 4 1017 0 0 W 0 96.6 436
19:22:46 4 1017 0 0 W 0 96.6 439
19:25:47 4 1017 0 0 W 0 96.6 442
19:28:47 4 1017 0 0 W 0 96.6 443
19:31:48 4 1017 0 0 W 0 96.6 437
19:34:44 4 1017 0 0 W 0 96.6 439
19:37:45 4 1018 0 0 W 0 96.6 446
19:40:48 4 1017 0 0 W 0 96.6 446
19:43:46 4 1017 0 0 W 0 96.6 442
19:46:46 4 1017 0 0 W 0 96.6 437
19:49:47 4 1017 0 0 W 0 96.6 443
19:52:47 4 1017 0 0 W 0 96.6 437
19:55:46 3 1018 0 0 W 0 96.6 437
19:58:47 3 1018 0 0 W 0 96.6 439
20:01:47 3 1017 0 0 W 0 96.6 443
20:04:46 3 1017 0 0 S 0 96.6 445
20:07:47 3 1018 0 0 S 0 96.6 445
20:10:45 3 1017 0 0 S 0 96.6 442
20:13:48 3 1018 0 0 S 0 96.6 436
20:16:46 3 1019 0 0 S 0 96.6 443
20:19:46 3 1018 0 0 S 0 96.6 446
20:22:47 3 1019 0 0 S 0 96.6 445
20:25:46 3 1019 0 0 S 0 96.6 445
20:28:45 3 1019 0 0 S 0 96.6 448
20:31:48 3 1018 0 0 S 0 96.6 444
20:34:47 3 1019 0 0 S 0 96.6 443
20:37:47 3 1019 0 0 S 0 96.6 439
20:40:45 2 1019 0 0 S 0 96.6 442
20:43:48 2 1019 0 0 S 0 96.6 448
20:46:46 2 1019 0 0 S 0 96.6 449
20:49:46 2 1019 0 0 S 0 96.6 439
20:52:45 2 1019 0 0 S 0 96.6 440
20:55:46 2 1019 0 0 S 0 96.6 442
20:58:48 2 1019 0 0 S 0 96.6 439
21:01:49 2 1020 0 0 S 0 96.6 442
21:04:48 2 1019 0 0 S 0 96.6 446
21:07:46 2 1019 0 0 S 0 96.6 455
21:10:46 2 1019 0 0 S 0 96.6 454
21:13:46 2 1020 0 0 S 0 96.6 451
21:16:47 2 1020 0 0 S 0 96.6 448
21:19:48 2 1020 0 0 S 0 96.6 443
21:22:47 2 1020 0 0 S 0 96.6 448
21:25:48 2 1019 0 0 S 0 96.6 454
21:28:44 2 1020 0 0 S 0 96.6 448
21:31:47 2 1020 0 0 S 0 96.6 445
21:34:45 2 1020 0 0 S 0 96.6 445
21:37:45 2 1020 0 0 S 0 96.6 454
21:40:47 2 1020 0 0 S 0 96.6 451
21:43:47 2 1020 0 0 S 0 96.6 454
21:46:46 2 1020 0 0 S 0 96.6 449
21:49:47 2 1020 0 0 S 0 96.6 446
21:52:47 2 1020 0 0 S 0 96.6 446
21:55:46 1 1020 0 0 S 0 96.6 454
21:58:45 1 1021 0 0 S 0 96.6 454
22:01:48 1 1020 0 0 S 0 96.6 457
22:04:48 1 1020 0 0 S 0 96.6 454
22:07:47 1 1021 0 0 S 0 96.6 451
22:10:49 1 1021 0 0 S 0 96.6 446
22:13:44 1 1021 0 0 S 0 96.6 445
22:16:46 1 1021 0 0 S 0 96.6 445
22:19:45 1 1021 0 0 S 0 96.6 446
22:22:45 1 1021 0 0 S 0 96.6 446
22:25:46 1 1021 0 0 S 0 96.6 448
22:28:45 1 1020 0 0 S 0 96.6 451
22:31:46 1 1021 0 0 S 0 96.6 451
22:34:46 1 1020 0 0 S 0 96.6 456
22:37:48 1 1021 0 0 S 0 96.6 448
22:40:48 1 1021 0 0 S 0 96.6 454
22:43:48 1 1020 0 0 S 0 96.6 459
22:46:48 1 1021 0 0 S 0 96.6 460
22:49:45 1 1021 0 0 S 0 96.6 457
22:52:45 1 1021 0 0 S 0 96.6 451
22:55:46 1 1020 0 0 S 0 96.6 451
22:58:46 1 1021 0 0 S 0 96.6 448
23:01:47 1 1020 0 0 S 0 96.6 448
23:04:47 1 1021 0 0 S 0 96.6 449
23:07:49 1 1021 0 0 S 0 96.6 448
23:10:45 1 1021 0 0 S 0 96.6 454
23:13:46 1 1021 0 0 S 0 96.6 460
23:16:46 1 1021 0 0 S 0 96.6 457
23:19:47 1 1021 0 1 W 0 96.6 452
23:22:47 1 1021 0 0 NW 0 96.6 454
23:25:49 1 1021 0 0 NW 0 96.6 456
23:28:46 1 1021 0 0 O 0 96.6 451
23:31:45 2 1021 0 1 W 0 96.6 451
23:34:45 2 1021 0 0 N 0 96.6 454
23:37:47 2 1021 0 0 N 0 96.6 451
23:40:45 2 1021 0 0 N 0 96.6 456
23:43:46 2 1021 0 0 N 0 96.6 451
23:46:47 2 1021 0 0 SO 0 96.6 457
23:49:48 2 1020 0 1 N 0 96.6 448
23:52:46 2 1021 0 0 N 0 96.6 448
23:55:49 2 1021 0 1 NW 0 96.6 452
23:58:46 3 1021 0 2 NW 0 96.6 454

Letzte Änderung : 04-Jan-2022
Copyright Jens Köhler, Wolfsburg, Obere Dorfstraße 10d